• In Switzerland
  • List of Countries
  • For 7 days
  • Water Temperature
  • Satellite Maps
  • Weather Map
  • Weather Widgets
  • user-avatar
    Login

    Hourly Weather Hoticy

    Today, 23 October, Tuesday

    Time Temperature Precipitation Wind Pressure Humidity
    00:00 +4°C° 0 mm 4 mps 752 mmHg 87%
    01:00 +4°C° 0 mm 4 mps 752 mmHg 87%
    02:00 +3°C° 0 mm 3 mps 751 mmHg 91%
    03:00 +3°C° 0 mm 3 mps 751 mmHg 91%
    04:00 +3°C° 0 mm 3 mps 750 mmHg 92%
    05:00 +3°C° 0 mm 4 mps 750 mmHg 92%
    06:00 +3°C° 0 mm 4 mps 749 mmHg 91%
    07:00 +3°C° 0 mm 4 mps 748 mmHg 91%
    08:00 +1°C° 0 mm 4 mps 747 mmHg 90%
    09:00 +2°C° 0 mm 5 mps 747 mmHg 87%
    10:00 +3°C° 0 mm 5 mps 746 mmHg 83%
    11:00 +5°C° 0 mm 5 mps 745 mmHg 79%
    12:00 +5°C° 0 mm 5 mps 743 mmHg 78%
    13:00 +5°C° 0 mm 6 mps 742 mmHg 77%
    14:00 +5°C° 0 mm 6 mps 741 mmHg 76%
    15:00 +5°C° 0.3 mm 6 mps 740 mmHg 77%
    16:00 +4°C° 0.3 mm 6 mps 738 mmHg 77%
    17:00 +4°C° 0.3 mm 6 mps 737 mmHg 78%
    18:00 +4°C° 0.5 mm 6 mps 736 mmHg 80%
    19:00 +4°C° 0.5 mm 6 mps 735 mmHg 81%
    20:00 +3°C° 0.5 mm 6 mps 734 mmHg 82%
    21:00 +3°C° 0.7 mm 6 mps 733 mmHg 83%
    22:00 +3°C° 0.7 mm 6 mps 732 mmHg 84%
    23:00 +3°C° 0.7 mm 5 mps 732 mmHg 86%

    Tomorrow, 24 October, Wednesday

    Time Temperature Precipitation Wind Pressure Humidity
    00:00 +3°C° 0.6 mm 5 mps 731 mmHg 87%
    01:00 +3°C° 0.6 mm 5 mps 731 mmHg 88%
    02:00 +4°C° 0.6 mm 4 mps 730 mmHg 89%
    03:00 +4°C° 0.5 mm 4 mps 730 mmHg 89%
    04:00 +4°C° 0.5 mm 4 mps 730 mmHg 90%
    05:00 +4°C° 0.5 mm 3 mps 729 mmHg 91%
    06:00 +4°C° 0.5 mm 4 mps 730 mmHg 91%
    07:00 +4°C° 0.5 mm 4 mps 730 mmHg 91%
    08:00 +4°C° 0.5 mm 4 mps 731 mmHg 91%
    09:00 +4°C° 0.5 mm 4 mps 731 mmHg 90%
    10:00 +4°C° 0.5 mm 4 mps 732 mmHg 89%
    11:00 +5°C° 0.5 mm 4 mps 733 mmHg 87%
    12:00 +5°C° 0.4 mm 5 mps 734 mmHg 86%
    13:00 +5°C° 0.4 mm 5 mps 734 mmHg 85%
    14:00 +5°C° 0.4 mm 5 mps 735 mmHg 84%
    15:00 +3°C° 0.3 mm 5 mps 736 mmHg 84%
    16:00 +3°C° 0.3 mm 5 mps 737 mmHg 84%
    17:00 +3°C° 0.3 mm 5 mps 737 mmHg 84%
    18:00 +3°C° 0.2 mm 5 mps 738 mmHg 84%
    19:00 +3°C° 0.2 mm 5 mps 739 mmHg 83%
    20:00 +2°C° 0.2 mm 5 mps 739 mmHg 83%
    21:00 +3°C° 0 mm 4 mps 740 mmHg 85%
    22:00 +3°C° 0 mm 4 mps 740 mmHg 86%
    23:00 +1°C° 0 mm 4 mps 741 mmHg 87%

    Day after tomorrow, 25 October, Thursday

    Time Temperature Precipitation Wind Pressure Humidity
    00:00 +1°C° 0 mm 4 mps 741 mmHg 89%
    01:00 +1°C° 0 mm 4 mps 741 mmHg 90%
    02:00 +2°C° 0 mm 3 mps 741 mmHg 91%
    03:00 +2°C° 0 mm 3 mps 741 mmHg 92%
    04:00 +1°C° 0 mm 3 mps 741 mmHg 93%
    05:00 +1°C° 0 mm 3 mps 741 mmHg 93%
    06:00 +1°C° 0.1 mm 3 mps 741 mmHg 93%
    07:00 +1°C° 0.1 mm 3 mps 741 mmHg 92%
    08:00 +2°C° 0.1 mm 3 mps 741 mmHg 91%
    09:00 +2°C° 0 mm 3 mps 741 mmHg 85%
    10:00 +3°C° 0 mm 3 mps 740 mmHg 79%
    11:00 +4°C° 0 mm 4 mps 740 mmHg 73%
    12:00 +5°C° 0 mm 3 mps 740 mmHg 71%
    13:00 +5°C° 0 mm 3 mps 740 mmHg 69%
    14:00 +5°C° 0 mm 3 mps 739 mmHg 67%
    15:00 +4°C° 0 mm 3 mps 739 mmHg 73%
    16:00 +4°C° 0 mm 2 mps 739 mmHg 79%
    17:00 +3°C° 0 mm 2 mps 739 mmHg 85%
    18:00 +3°C° 0 mm 2 mps 739 mmHg 87%
    19:00 +2°C° 0 mm 2 mps 740 mmHg 89%
    20:00 +2°C° 0 mm 2 mps 740 mmHg 91%
    21:00 +2°C° 0 mm 2 mps 740 mmHg 91%
    22:00 +1°C° 0 mm 3 mps 740 mmHg 91%
    23:00 +1°C° 0 mm 3 mps 740 mmHg 92%

    26 October, Friday

    Time Temperature Precipitation Wind Pressure Humidity
    00:00 +1°C° 0 mm 3 mps 740 mmHg 92%
    01:00 0°C° 0 mm 3 mps 740 mmHg 93%
    02:00 0°C° 0 mm 3 mps 740 mmHg 93%
    03:00 0°C° 0 mm 3 mps 740 mmHg 94%
    04:00 0°C° 0 mm 3 mps 740 mmHg 94%
    05:00 0°C° 0 mm 3 mps 740 mmHg 94%
    06:00 0°C° 0 mm 3 mps 741 mmHg 93%
    07:00 0°C° 0 mm 3 mps 741 mmHg 93%
    08:00 +1°C° 0 mm 3 mps 741 mmHg 92%
    09:00 +1°C° 0 mm 4 mps 741 mmHg 87%
    10:00 +3°C° 0 mm 4 mps 741 mmHg 83%
    11:00 +4°C° 0 mm 4 mps 742 mmHg 78%
    12:00 +4°C° 0.1 mm 4 mps 742 mmHg 75%
    13:00 +4°C° 0.1 mm 4 mps 742 mmHg 72%
    14:00 +5°C° 0.1 mm 5 mps 742 mmHg 69%
    15:00 +4°C° 0 mm 4 mps 742 mmHg 74%
    16:00 +3°C° 0 mm 3 mps 743 mmHg 79%
    17:00 +2°C° 0 mm 3 mps 743 mmHg 85%
    18:00 +2°C° 0 mm 3 mps 743 mmHg 87%
    19:00 +2°C° 0 mm 2 mps 743 mmHg 89%
    20:00 +2°C° 0 mm 2 mps 743 mmHg 92%
    21:00 +2°C° 0 mm 2 mps 743 mmHg 92%
    22:00 +2°C° 0 mm 2 mps 743 mmHg 93%
    23:00 +1°C° 0 mm 2 mps 743 mmHg 94%

    27 October, Saturday

    Time Temperature Precipitation Wind Pressure Humidity
    00:00 +2°C° 0 mm 2 mps 742 mmHg 93%
    01:00 +2°C° 0 mm 2 mps 742 mmHg 91%
    02:00 +1°C° 0 mm 3 mps 741 mmHg 90%
    03:00 +1°C° 1.1 mm 3 mps 740 mmHg 90%
    04:00 +1°C° 1.1 mm 4 mps 739 mmHg 89%
    05:00 +1°C° 1.1 mm 5 mps 738 mmHg 89%
    06:00 +1°C° 1.3 mm 5 mps 737 mmHg 90%
    07:00 +1°C° 1.3 mm 5 mps 736 mmHg 91%
    08:00 +2°C° 1.3 mm 5 mps 735 mmHg 92%
    09:00 +2°C° 1.2 mm 5 mps 735 mmHg 92%
    10:00 +3°C° 1.2 mm 4 mps 735 mmHg 91%
    11:00 +4°C° 1.2 mm 3 mps 735 mmHg 91%
    12:00 +4°C° 0.5 mm 3 mps 735 mmHg 89%
    13:00 +4°C° 0.5 mm 3 mps 736 mmHg 87%
    14:00 +6°C° 0.5 mm 2 mps 736 mmHg 86%
    15:00 +4°C° 0.2 mm 3 mps 736 mmHg 87%
    16:00 +4°C° 0.2 mm 3 mps 737 mmHg 89%
    17:00 +3°C° 0.2 mm 3 mps 738 mmHg 90%
    18:00 +3°C° 0.2 mm 4 mps 739 mmHg 90%
    19:00 +1°C° 0.2 mm 4 mps 740 mmHg 90%
    20:00 +1°C° 0.2 mm 5 mps 741 mmHg 90%
    21:00 +1°C° 0.2 mm 4 mps 742 mmHg 89%
    22:00 +1°C° 0.2 mm 4 mps 744 mmHg 89%
    23:00 0°C° 0.2 mm 4 mps 745 mmHg 88%

    28 October, Sunday

    Time Temperature Precipitation Wind Pressure Humidity
    00:00 0°C° 0.2 mm 4 mps 746 mmHg 89%
    01:00 +1°C° 0.2 mm 3 mps 747 mmHg 91%
    02:00 +1°C° 0.2 mm 3 mps 748 mmHg 92%
    03:00 +1°C° 0.3 mm 3 mps 749 mmHg 93%
    04:00 +1°C° 0.3 mm 3 mps 750 mmHg 93%
    05:00 +1°C° 0.3 mm 3 mps 750 mmHg 93%
    06:00 +1°C° 0.1 mm 3 mps 751 mmHg 93%
    07:00 0°C° 0.1 mm 3 mps 752 mmHg 92%
    08:00 0°C° 0.1 mm 3 mps 753 mmHg 92%
    09:00 +1°C° 0 mm 3 mps 753 mmHg 88%
    10:00 +1°C° 0 mm 3 mps 754 mmHg 84%
    11:00 +2°C° 0 mm 3 mps 755 mmHg 81%
    12:00 +2°C° 0 mm 3 mps 755 mmHg 79%
    13:00 +2°C° 0 mm 3 mps 756 mmHg 78%
    14:00 +3°C° 0 mm 3 mps 756 mmHg 76%
    15:00 +2°C° 0 mm 3 mps 757 mmHg 80%
    16:00 +1°C° 0 mm 3 mps 757 mmHg 84%
    17:00 +1°C° 0 mm 2 mps 758 mmHg 88%
    18:00 -1°C° 0 mm 2 mps 758 mmHg 89%
    19:00 -1°C° 0 mm 2 mps 759 mmHg 90%
    20:00 -2°C° 0 mm 2 mps 759 mmHg 92%
    21:00 -2°C° 0 mm 2 mps 760 mmHg 92%
    22:00 -2°C° 0 mm 2 mps 760 mmHg 92%
    23:00 0°C° 0 mm 1 mps 761 mmHg 93%

    29 October, Monday

    Time Temperature Precipitation Wind Pressure Humidity
    00:00 0°C° 0 mm 1 mps 761 mmHg 92%
    01:00 0°C° 0 mm 1 mps 761 mmHg 92%
    02:00 0°C° 0 mm 1 mps 762 mmHg 92%
    03:00 0°C° 0 mm 1 mps 762 mmHg 92%
    04:00 0°C° 0 mm 1 mps 762 mmHg 92%
    05:00 0°C° 0 mm 1 mps 762 mmHg 92%
    06:00 0°C° 0 mm 1 mps 762 mmHg 92%
    07:00 0°C° 0 mm 1 mps 762 mmHg 92%
    08:00 0°C° 0 mm 1 mps 762 mmHg 91%
    09:00 +1°C° 0 mm 1 mps 763 mmHg 89%
    10:00 -1°C° 0 mm 2 mps 763 mmHg 86%
    11:00 +1°C° 0 mm 2 mps 763 mmHg 84%
    12:00 +1°C° 0 mm 2 mps 763 mmHg 84%
    13:00 +1°C° 0 mm 3 mps 763 mmHg 83%
    14:00 +1°C° 0 mm 3 mps 763 mmHg 83%
    15:00 0°C° 0 mm 3 mps 762 mmHg 85%
    16:00 0°C° 0 mm 3 mps 762 mmHg 87%
    17:00 0°C° 0 mm 3 mps 762 mmHg 89%
    18:00 -1°C° 0.1 mm 4 mps 762 mmHg 89%
    19:00 -2°C° 0.1 mm 4 mps 762 mmHg 88%
    20:00 -2°C° 0.1 mm 4 mps 762 mmHg 88%
    21:00 -2°C° 0.2 mm 4 mps 762 mmHg 88%
    22:00 -2°C° 0.2 mm 5 mps 761 mmHg 88%
    23:00 -2°C° 0.2 mm 5 mps 761 mmHg 88%
    Show more